Weather Roundup
Issued by NWS

Home | Current Version | Previous Version | Text Only | Print | Product List | Glossary On
Versions: 1 2 3 4 5 6 7 8 9 10 11 12 13 14 15 16 17 18 19 20 21 22 23 24 25 26 27 28 29 30 31 32 33 34 35 36 37 38 39 40 41 42 43 44 45 46 47 48 49 50
000
NZUS93 KARX 180359
HRRWXR

CURRENT HOURLY OBSERVATIONS ACROSS
MUCH OF THE UPPER MISSISSIPPI VALLEY
NATIONAL WEATHER SERVICE LA CROSSE WI
1000 PM CST SAT FEB 17 2018


...SOUTHEAST MINNESOTA...


CITY           SKY/WX    TMP DP  RH WIND       PRES   REMARKS
ROCHESTER      FAIR      17  15  92 SW10      30.06R WCI   5
ROCHESTER/MAYO FAIR      26  17  71 W7        30.06S WCI  18
WINONA         FAIR      27  19  74 W3        30.06R
AUSTIN         FAIR      21  19  93 SW6       30.07S WCI  14
ALBERT LEA     FAIR      21  18  86 SW6       30.08R WCI  14
DODGE CENTER   FAIR      18  12  79 W5        30.06R WCI  11
PRESTON        FAIR      23  20  87 W10       30.07S WCI  13
OWATONNA       FAIR      18  12  79 SW6       30.06R WCI   9
FARIBAULT      FAIR      16   9  73 CALM      30.06S
$$

...ELSEWHERE IN MINNESOTA...


CITY           SKY/WX    TMP DP  RH WIND       PRES   REMARKS
MINNEAPOLIS    FAIR      22   7  52 NW6       30.06R WCI  14
INTNL FALLS    MOCLDY     9   0  67 NW13      29.92R WCI  -7
DULUTH         FAIR      15   3  59 NW9       29.93R WCI   3
RED WING       FAIR      25   7  46 W6        30.06S WCI  18
REDWOOD FALLS  CLEAR     21  12  68 W3        30.05S
MANKATO        FAIR      22  13  68 W5        30.08R WCI  16
WORTHINGTON    CLEAR     18  16  92 SW10      30.08R WCI   6
FAIRMONT       CLEAR     19  16  88 SW12      30.09R WCI   7
$$

...SOUTHWEST WISCONSIN...


CITY           SKY/WX    TMP DP  RH WIND       PRES   REMARKS
LA CROSSE      FAIR      26  20  77 SW9       30.08R WCI  17
PRAIRIE DU CHI FAIR      26  21  83 CALM      30.12R
BOSCOBEL       FAIR      25  21  85 SW6       30.11R WCI  18
LONE ROCK      NOT AVBL
PLATTEVILLE    FAIR      24  23  96 W10       30.10R WCI  14
FORT MC COY    FAIR      15  14  95 CALM      30.07R
CAMP DOUGLAS   FAIR      24  20  86 SW8       30.04R WCI  15
MAUSTON-NEW LI FAIR      28  23  82 SW9       30.03S WCI  19
VIROQUA        FAIR      22  22 100 SW12      30.05R WCI  10
WIS DELLS      FAIR      25  21  85 SW8       30.04S WCI  16
$$

...ELSEWHERE IN WISCONSIN...


CITY           SKY/WX    TMP DP  RH WIND       PRES   REMARKS
MILWAUKEE      MOCLDY    29  23  78 W9        30.06R WCI  20
MADISON        FAIR      26  21  81 W3        30.07R
GREEN BAY      FAIR      24  18  77 SW6       30.00R WCI  17
EAU CLAIRE     NOT AVBL
BLACK RVR FLS  FAIR      20  20 100 S5        30.04R WCI  13
MEDFORD        FAIR      20  17  88 W7        29.95R WCI  11
WAUSAU         FAIR      23  19  85 W13       29.96R WCI  11
WIS RAPIDS     FAIR      22  17  81 W6        30.02R WCI  14
MARSHFIELD     FAIR      21  19  92 W9        29.98R WCI  11
RICE LAKE      FAIR      20   7  58 W7        30.03R WCI  11
$$

...NORTHEAST IOWA...


CITY           SKY/WX    TMP DP  RH WIND       PRES   REMARKS
WATERLOO       FAIR      22  21  96 W9        30.11F WCI  12
DUBUQUE        FAIR      19  16  88 W5        30.10S WCI  12
DECORAH        FAIR      25  23  93 W8        30.07S WCI  16
MASON CITY     CLEAR     24  20  84 W14       30.10F WCI  12
CHARLES CITY   FAIR      23  23 100 W10       30.09F WCI  12
OELWEIN        FAIR      21  21 100 W10       30.11S WCI  10
$$

...ELSEWHERE IN IOWA...


CITY           SKY/WX    TMP DP  RH WIND       PRES   REMARKS
DES MOINES     CLEAR     31  25  78 SW5       30.16S WCI  26
IOWA CITY      FAIR      19  15  84 NW5       30.17R FOG     WCI  12
FORT DODGE     CLEAR     20  18  92 S3        30.12S
MARSHALLTOWN   CLEAR     21  20  96 W9        30.13R WCI  11
CEDAR RAPIDS   FAIR      22  20  92 W10       30.13R FOG     WCI  11
$$

...NORTHERN ILLINOIS...


CITY           SKY/WX    TMP DP  RH WIND       PRES   REMARKS
CHICAGO-OHARE  MOCLDY    29  23  78 W10       30.10R WCI  20
CHICAGO-MIDWAY CLOUDY    30  25  81 W14       30.12R WCI  19
MOLINE         FAIR      18  16  92 SW5       30.16R FOG     WCI  11
ROCKFORD       CLOUDY    26  21  81 SW6       30.15R WCI  19
PEORIA         FAIR      23  21  92 SW6       30.19R WCI  16
$$

NOTE: "FAIR" INDICATES FEW OR NO CLOUDS BELOW 12,000 FEET WITH NO
SIGNIFICANT WEATHER AND/OR OBSTRUCTIONS TO VISIBILITY. WIND
SPEEDS ARE IN MILES-PER-HOUR.




USA.gov is the U.S. government's official web portal to all federal, state and local government web resources and services.